Regional Weather Roundup
Issued by NWS Newport/Morehead, NC

Current Version | Previous Version | Graphics & Text | Print | Product List | Glossary Off
Versions: 1 2 3 4 5 6 7 8 9 10 11 12 13 14 15 16 17 18 19 20 21 22 23 24 25 26 27 28 29 30 31 32 33 34 35 36 37 38 39 40 41 42 43 44 45 46 47 48 49 50

000
ASUS42 KMHX 272013
RWRMHX
WEATHER ROUNDUP FOR EASTERN NORTH CAROLINA
NATIONAL WEATHER SERVICE NEWPORT/MOREHEAD CITY NC
400 PM EDT THU AUG 27 2015

NOTE: "FAIR" INDICATES FEW OR NO CLOUDS BELOW 12,000 FEET
WITH NO SIGNIFICANT WEATHER AND/OR OBSTRUCTIONS TO VISIBILITY

NCZ015>017-031-032-045>047-102-103-272100-
NORTH COAST

CITY           SKY/WX    TMP DP  RH WIND       PRES   REMARKS
EDENTON        CLOUDY    75  65  71 NE5       30.06F
ELIZABETH CITY CLOUDY    77  64  64 NE14      30.06S
KITTY HAWK     CLOUDY    78  63  59 NE10G16   30.04S
MANTEO         CLOUDY    76  65  68 NE12G17   30.04F

$$

NCZ045>047-081-094-103-104-272100-
CENTRAL COAST

CITY           SKY/WX    TMP DP  RH WIND       PRES   REMARKS
FRISCO         CLOUDY    77  69  76 NE10G20   30.01S
SWANQUARTER    NOT AVBL

$$

NCZ095-097-098-100-101-272100-
SOUTHERN COAST

CITY           SKY/WX    TMP DP  RH WIND       PRES   REMARKS
BEAUFORT       LGT RAIN  77  72  84 NE10      30.00S
CEDAR ISLAND   NOT AVBL
JACKSONVILLE   CLOUDY    79  70  74 N12       30.01F
PINEY ISLAND   CLOUDY   N/A N/A N/A NE17G29   30.00F
WILMINGTON     CLOUDY    81  72  74 NE7       30.00F


$$

NCZ011>013-027>030-043-044-078>080-089-090>093-098-272100-
COASTAL PLAIN

CITY           SKY/WX    TMP DP  RH WIND       PRES   REMARKS
AHOSKIE        PTSUNNY   77  60  55 NE6       30.08S
CLINTON        PTSUNNY   78  69  73 NE8       30.04F
ELIZABETHTOWN  CLOUDY    78  69  74 CALM      30.03S
GOLDSBORO      CLOUDY    75  66  71 NE9       30.04F
GREENVILLE     CLOUDY    73  68  83 E7        30.08S
HAVELOCK       CLOUDY    79  70  74 NE12      30.02F
KENANSVILLE      N/A     76  67  73 N6        30.05S
KINSTON        CLOUDY    75  63  64 NE8       30.06F
NEW BERN       CLOUDY    79  68  69 NE14      30.03F
RICHLANDS      CLOUDY    77  66  69 N12       30.02F
ROCKY MOUNT    CLOUDY    81  59  47 NE8       30.07S
WASHINGTON     CLOUDY    73  67  82 N5        30.06S
WHITEVILLE     CLOUDY    75  71  86 CALM      30.01F

$$

AMZ130-135-150-152-154-156-158-170-250-252-270-ANZ085-086-088-633-658-670-272100-
MARINE OBSERVATIONS

STATION/POSITION TIME  TEMP    WIND        PRES    WAVE   SWELL
                       AIR SEA DIR/SP/G            HT/PER HT/PER
                 (UTC) (F)     (DEG/KT/KT) (MB)    (FT/S) (FT/S)
CHESAPEAKE LIGHT 2000   75      40/ 12/ 13 1018.9
64 E VA BEACH    1950   77 80   40/ 14/ 17 1017.1    4/10   3/10
DUCK             1900   77      40/ 15/ 18   N/A
2 E DUCK         1911      78                N/A     5/ 5   2/12
OREGON INLET     1900   77      30/ 16/ 21   N/A
13E OREGON INLT  1900      80                N/A     5/ 6   2/11
HATTERAS CG      1900   78      50/ 15/ 21   N/A
DIAMOND BUOY     1950   79 82   90/ 10/ 12 1016.0    5/ 9   5/ 9
CAPE LOOKOUT     2000   78      30/ 21/ 24 1015.3
BEAUFORT LAB     1900   80      50/  6/ 12   N/A
30 SE NEW RVR IN 1908   81 82   50/ 14/ 17 1015.7
30 SE NEW RVR IN 1925      82                N/A     3/10   2/11
27 SE WRIGHTSVLE 1900   76 82   60/ 14/ 16   N/A
5 SE WRIGHTSVLE  1908   79 83   50/ 12/ 16 1015.8
225 S CAPE HAT   1950   80 84  140/  8/ 10 1014.9    3/10   3/10
41 SE CHARLESTON 1950   81 85  350/  4/  6 1014.5    3/10   3/10

$$


USA.gov is the U.S. government's official web portal to all federal, state and local government web resources and services.